| time (UTC) | temp C | wind direction | speed KPH | gust KPH | rain 1hr cm | rain 24hr cm | rain mn cm | humidity % | barometer mb |
| 20260507070041 | -17 | 0.0 | 0.0 | 0.00 | 0.00 | 0.00 | 1004.2 | ||
| 20260507064532 | -17 | 0.0 | 0.0 | 0.00 | 0.00 | 0.00 | 1003.6 | ||
| 20260507063040 | -17 | 0.0 | 0.0 | 0.00 | 0.00 | 0.00 | 1003.8 | ||
| 20260507061527 | -17 | 0.0 | 0.0 | 0.00 | 0.00 | 0.00 | 1004.0 | ||
| 20260507060034 | -17 | 0.0 | 0.0 | 0.00 | 0.00 | 0.00 | 1004.2 | ||
| 20260507054514 | -17 | 0.0 | 0.0 | 0.00 | 0.00 | 0.00 | 1004.4 | ||
| 20260507053008 | -17 | 0.0 | 0.0 | 0.00 | 0.00 | 0.00 | 1004.8 | ||
| 20260507051508 | -17 | 0.0 | 0.0 | 0.00 | 0.00 | 0.00 | 1004.9 | ||
| 20260507050035 | -17 | 0.0 | 0.0 | 0.00 | 0.00 | 0.00 | 1005.1 | ||
| 20260507044526 | -17 | 0.0 | 0.0 | 0.00 | 0.00 | 0.00 | 1005.1 | ||
| 20260507043020 | -17 | 0.0 | 0.0 | 0.00 | 0.00 | 0.00 | 1005.0 | ||
| 20260507041515 | -17 | 0.0 | 0.0 | 0.00 | 0.00 | 0.00 | 1005.2 | ||
| 20260507040011 | -17 | 0.0 | 0.0 | 0.00 | 0.00 | 0.00 | 1005.4 | ||
| 20260507034520 | -17 | 0.0 | 0.0 | 0.00 | 0.00 | 0.00 | 1005.2 | ||
| 20260507033104 | -17 | 0.0 | 0.0 | 0.00 | 0.00 | 0.00 | 1005.2 | ||
| 20260507031609 | -17 | 0.0 | 0.0 | 0.00 | 0.00 | 0.00 | 1005.4 | ||
| 20260507030051 | -17 | 0.0 | 0.0 | 0.00 | 0.00 | 0.00 | 1005.1 | ||
| 20260507024547 | -17 | 0.0 | 0.0 | 0.00 | 0.00 | 0.00 | 1005.3 | ||
| 20260507023040 | -17 | 0.0 | 0.0 | 0.00 | 0.00 | 0.00 | 1005.8 | ||
| 20260507021538 | -17 | 0.0 | 0.0 | 0.00 | 0.00 | 0.00 | 1006.0 | ||
| 20260507020041 | -17 | 0.0 | 0.0 | 0.00 | 0.00 | 0.00 | 1006.0 | ||
| 20260507014527 | -17 | 0.0 | 0.0 | 0.00 | 0.00 | 0.00 | 1006.1 | ||
| 20260507013038 | -17 | 0.0 | 0.0 | 0.00 | 0.00 | 0.00 | 1006.1 | ||
| 20260507011516 | -17 | 0.0 | 0.0 | 0.00 | 0.00 | 0.00 | 1006.0 | ||
| 20260507010011 | -17 | 0.0 | 0.0 | 0.00 | 0.00 | 0.00 | 1006.3 | ||
| 20260507004507 | -17 | 0.0 | 0.0 | 0.00 | 0.00 | 0.00 | 1006.2 | ||
| 20260507003100 | -17 | 0.0 | 0.0 | 0.00 | 0.00 | 0.00 | 1006.0 | ||
| 20260507001557 | -17 | 0.0 | 0.0 | 0.00 | 0.00 | 0.00 | 1006.1 | ||
| 20260507000052 | -17 | 0.0 | 0.0 | 0.00 | 0.00 | 0.00 | 1006.1 | ||
| 20260506234549 | -17 | 0.0 | 0.0 | 0.00 | 0.00 | 0.00 | 1006.0 | ||
| 20260506233056 | -17 | 0.0 | 0.0 | 0.00 | 0.00 | 0.00 | 1006.3 | ||
| 20260506231540 | -17 | 0.0 | 0.0 | 0.00 | 0.00 | 0.00 | 1006.7 | ||
| 20260506230032 | -17 | 0.0 | 0.0 | 0.00 | 0.00 | 0.00 | 1006.8 | ||
| 20260506224528 | -17 | 0.0 | 0.0 | 0.00 | 0.00 | 0.00 | 1006.9 | ||
| 20260506223023 | -17 | 0.0 | 0.0 | 0.00 | 0.00 | 0.00 | 1006.9 | ||
| 20260506221520 | 14 | 217 | 45.1 | 56.3 | 0.00 | 0.00 | 0.00 | 90 | 1006.8 |
| 20260506220027 | 14 | 210 | 41.8 | 56.3 | 0.00 | 0.00 | 0.00 | 90 | 1006.8 |
| 20260506214519 | 14 | 218 | 38.6 | 53.1 | 0.00 | 0.00 | 0.00 | 90 | 1006.9 |
| 20260506213017 | 14 | 213 | 45.1 | 54.7 | 0.00 | 0.00 | 0.00 | 90 | 1007.1 |
| 20260506211546 | 14 | 215 | 45.1 | 56.3 | 0.00 | 0.00 | 0.00 | 90 | 1007.3 |
| 20260506210045 | 14 | 214 | 48.3 | 57.9 | 0.00 | 0.00 | 0.00 | 89 | 1007.1 |
| 20260506204513 | 14 | 212 | 43.5 | 57.9 | 0.00 | 0.00 | 0.00 | 89 | 1007.3 |
| 20260506203012 | 14 | 209 | 46.7 | 61.2 | 0.00 | 0.00 | 0.00 | 89 | 1007.6 |
| 20260506201508 | 14 | 215 | 45.1 | 53.1 | 0.00 | 0.00 | 0.00 | 88 | 1007.7 |
| 20260506200013 | 14 | 217 | 40.2 | 51.5 | 0.00 | 0.00 | 0.00 | 88 | 1007.8 |
| 20260506194508 | 14 | 218 | 41.8 | 53.1 | 0.00 | 0.00 | 0.00 | 88 | 1008.1 |
| 20260506194504 | 14 | 215 | 41.8 | 53.1 | 0.00 | 0.00 | 0.00 | 88 | 1008.1 |
| 20260506193003 | 14 | 194 | 41.8 | 53.1 | 0.00 | 0.00 | 0.00 | 88 | 1008.2 |
| 20260506191559 | 14 | 214 | 41.8 | 59.5 | 0.00 | 0.00 | 0.00 | 87 | 1008.1 |
| 20260506190059 | 14 | 207 | 41.8 | 54.7 | 0.00 | 0.00 | 0.00 | 88 | 1008.2 |
| 20260506184604 | 14 | 213 | 46.7 | 56.3 | 0.00 | 0.00 | 0.00 | 87 | 1008.5 |
| 20260506183054 | 15 | 214 | 43.5 | 56.3 | 0.00 | 0.00 | 0.00 | 87 | 1008.7 |
| 20260506181550 | 15 | 209 | 46.7 | 57.9 | 0.00 | 0.00 | 0.00 | 87 | 1009.0 |
| 20260506180049 | 15 | 214 | 45.1 | 54.7 | 0.00 | 0.00 | 0.00 | 86 | 1009.3 |
| 20260506174549 | 15 | 211 | 45.1 | 57.9 | 0.00 | 0.00 | 0.00 | 87 | 1009.2 |
| 20260506173058 | 15 | 198 | 46.7 | 56.3 | 0.00 | 0.00 | 0.00 | 87 | 1009.3 |
| 20260506171514 | 15 | 218 | 46.7 | 54.7 | 0.00 | 0.00 | 0.00 | 87 | 1009.4 |
| 20260506170012 | 15 | 200 | 45.1 | 56.3 | 0.00 | 0.00 | 0.00 | 87 | 1009.9 |
| 20260506164508 | 15 | 213 | 45.1 | 56.3 | 0.00 | 0.00 | 0.00 | 87 | 1010.0 |
| 20260506163005 | 15 | 212 | 45.1 | 54.7 | 0.00 | 0.00 | 0.00 | 86 | 1010.3 |
| 20260506161503 | 15 | 198 | 43.5 | 53.1 | 0.00 | 0.00 | 0.00 | 87 | 1010.3 |
| 20260506160006 | 15 | 219 | 45.1 | 54.7 | 0.00 | 0.00 | 0.00 | 85 | 1010.6 |
| 20260506154558 | 15 | 216 | 45.1 | 54.7 | 0.00 | 0.00 | 0.00 | 86 | 1010.8 |
| 20260506153101 | 15 | 219 | 38.6 | 48.3 | 0.00 | 0.00 | 0.00 | 86 | 1011.1 |
| 20260506151556 | 15 | 222 | 37.0 | 51.5 | 0.00 | 0.00 | 0.00 | 85 | 1011.2 |
| 20260506150054 | 15 | 213 | 40.2 | 49.9 | 0.00 | 0.00 | 0.00 | 87 | 1010.9 |
| 20260506144551 | 15 | 207 | 38.6 | 51.5 | 0.00 | 0.00 | 0.00 | 86 | 1010.8 |
| 20260506143049 | 15 | 219 | 37.0 | 51.5 | 0.00 | 0.00 | 0.00 | 87 | 1010.7 |
| 20260506141605 | 14 | 220 | 43.5 | 53.1 | 0.00 | 0.00 | 0.00 | 88 | 1010.8 |
| 20260506140047 | 15 | 218 | 41.8 | 51.5 | 0.00 | 0.00 | 0.00 | 87 | 1011.1 |
| 20260506134543 | 15 | 219 | 38.6 | 49.9 | 0.00 | 0.00 | 0.00 | 86 | 1011.0 |
| 20260506133041 | 15 | 224 | 35.4 | 49.9 | 0.00 | 0.00 | 0.00 | 87 | 1010.9 |
| 20260506131540 | 14 | 213 | 33.8 | 49.9 | 0.00 | 0.00 | 0.00 | 88 | 1010.9 |
| 20260506130040 | 14 | 202 | 35.4 | 45.1 | 0.00 | 0.00 | 0.00 | 88 | 1010.9 |
| 20260506124509 | 14 | 220 | 33.8 | 49.9 | 0.00 | 0.00 | 0.00 | 88 | 1011.0 |
| 20260506123009 | 14 | 221 | 38.6 | 51.5 | 0.00 | 0.00 | 0.00 | 89 | 1010.8 |
| 20260506121503 | 14 | 205 | 33.8 | 46.7 | 0.00 | 0.00 | 0.00 | 88 | 1011.2 |
| 20260506120003 | 14 | 207 | 27.4 | 41.8 | 0.00 | 0.00 | 0.00 | 89 | 1011.3 |
| 20260506114503 | 14 | 222 | 30.6 | 45.1 | 0.00 | 0.00 | 0.00 | 87 | 1011.2 |
| 20260506113109 | 14 | 200 | 27.4 | 46.7 | 0.00 | 0.00 | 0.00 | 88 | 1011.2 |
| 20260506111555 | 14 | 229 | 22.5 | 41.8 | 0.00 | 0.00 | 0.00 | 89 | 1011.2 |
| 20260506110056 | 14 | 222 | 25.7 | 37.0 | 0.00 | 0.00 | 0.00 | 89 | 1011.2 |
| 20260506104555 | 14 | 203 | 20.9 | 40.2 | 0.00 | 0.00 | 0.00 | 90 | 1011.1 |
| 20260506103053 | 13 | 218 | 24.1 | 41.8 | 0.00 | 0.00 | 0.00 | 90 | 1011.0 |
| 20260506101549 | -17 | 0.0 | 0.0 | 0.00 | 0.00 | 0.00 | 1011.1 | ||
| 20260506100013 | -17 | 0.0 | 0.0 | 0.00 | 0.00 | 0.00 | 1011.1 | ||
| 20260506094526 | -17 | 0.0 | 0.0 | 0.00 | 0.00 | 0.00 | 1011.2 | ||
| 20260506093009 | -17 | 0.0 | 0.0 | 0.00 | 0.00 | 0.00 | 1011.3 | ||
| 20260506091508 | -17 | 0.0 | 0.0 | 0.00 | 0.00 | 0.00 | 1011.1 | ||
| 20260506090007 | -17 | 0.0 | 0.0 | 0.00 | 0.00 | 0.00 | 1011.1 | ||
| 20260506084507 | -17 | 0.0 | 0.0 | 0.00 | 0.00 | 0.00 | 1011.3 | ||
| 20260506083042 | -17 | 0.0 | 0.0 | 0.00 | 0.00 | 0.00 | 1011.4 | ||
| 20260506081537 | -17 | 0.0 | 0.0 | 0.00 | 0.00 | 0.00 | 1011.3 | ||
| 20260506073003 | -17 | 0.0 | 0.0 | 0.00 | 0.00 | 0.00 | 1011.3 | ||
| 20260506071506 | -17 | 0.0 | 0.0 | 0.00 | 0.00 | 0.00 | 1011.3 |